Regional Weather Roundup
Issued by NWS Memphis, TN

Home | Current Version | Previous Version | Text Only | Print | Product List | Glossary On
Versions: 1 2 3 4 5 6 7 8 9 10 11 12 13 14 15 16 17 18 19 20 21 22 23 24 25 26 27 28 29 30 31 32 33 34 35 36 37 38 39 40 41 42 43 44 45 46 47 48 49 50
000
ASUS44 KMEG 201800
RWRMEG
MEMPHIS CWA HOURLY WEATHER ROUNDUP
NATIONAL WEATHER SERVICE MEMPHIS TN
1200 PM CST TUE FEB 20 2018

...WEST TENNESSEE...

CITY           SKY/WX    TMP DP  RH WIND       PRES   REMARKS
MEMPHIS INTL   LGT RAIN  75  61  61 S18G32    30.13F
6HR MIN TEMP:  66; 6HR MAX TEMP:  75; 6HR PCP: TRACE;

NWS MEMPHIS      N/A     74 N/A N/A MISG        N/A
JACKSON        PTSUNNY   74  60  61 SW20G28   30.16F
6HR MIN TEMP:  66; 6HR MAX TEMP:  74;

DYERSBURG      CLOUDY    73  61  65 S12G18    30.13F
6HR MIN TEMP:  66; 6HR MAX TEMP:  73;



...EASTERN ARKANSAS...

CITY           SKY/WX    TMP DP  RH WIND       PRES   REMARKS
JONESBORO      CLOUDY    73  67  81 S20       30.06F
6HR MIN TEMP:  64; 6HR MAX TEMP:  73; 6HR PCP: TRACE;

WEST MEMPHIS   CLOUDY    73  65  75 S21G32    30.10F
6HR MIN TEMP:  64; 6HR MAX TEMP:  74;

BATESVILLE     CLOUDY    75  63  66 S13G22    30.02F
6HR MIN TEMP:  66; 6HR MAX TEMP:  75; 6HR PCP:  0.02;

WALNUT RIDGE   CLOUDY    71  66  84 S24G32    30.03F
6HR MIN TEMP:  65; 6HR MAX TEMP:  72;

BLYTHEVILLE    PTSUNNY   74  63  68 S22G30    30.11F
6HR MIN TEMP:  66; 6HR MAX TEMP:  74;

SEARCY         CLOUDY    74  69  85 S18G26    30.04F
6HR MIN TEMP:  66; 6HR MAX TEMP:  75;

STUTTGART      PTSUNNY   76  65  68 S21G29    30.08F
6HR MIN TEMP:  66; 6HR MAX TEMP:  76;

PINE BLUFF     PTSUNNY   78  64  61 S17G23    30.06F
6HR MIN TEMP:  68; 6HR MAX TEMP:  78;

MONTICELLO     CLOUDY    75  64  68 S9        30.07F
6HR MIN TEMP:  69; 6HR MAX TEMP:  76;



...NORTH MISSISSIPPI...

CITY           SKY/WX    TMP DP  RH WIND       PRES   REMARKS
TUPELO         CLOUDY    71  62  73 SE17      30.20F
6HR MIN TEMP:  65; 6HR MAX TEMP:  71;

OXFORD         CLOUDY    72  63  73 SE13G21   30.17F
BATESVILLE       N/A    N/A N/A N/A MISG        N/A
OLIVE BRANCH   PTSUNNY   72  64  78 S17       30.13F
CLARKSDALE     PTSUNNY   75  68  78 S18G25    30.13F
GREENWOOD      CLOUDY    77  64  64 S21G29    30.13F
6HR MIN TEMP:  65; 6HR MAX TEMP:  80;

COLUMBUS       PTSUNNY   73  66  78 S14G23    30.22F
6HR MIN TEMP:  62; 6HR MAX TEMP:  73;

STARKVILLE     PTSUNNY   73  63  68 S13G23    30.22F
GOLDEN TRIANGL CLOUDY    73  65  75 SE16      30.22F
6HR MIN TEMP:  64; 6HR MAX TEMP:  73;



...SOUTHEAST MISSOURI...

CITY           SKY/WX    TMP DP  RH WIND       PRES   REMARKS
KENNETT        CLOUDY    73  64  73 S22G28    30.06F HAZE
MALDEN         PTSUNNY   73  63  68 S25G35    30.07F
WEST PLAINS    CLOUDY    67  61  81 S16G25    29.99S
6HR MIN TEMP:  63; 6HR MAX TEMP:  67; 6HR PCP:  0.28;

POPLAR BLUFF   PTSUNNY   72  64  76 S24G40    30.02F
6HR MIN TEMP:  65; 6HR MAX TEMP:  73;

CAPE GIRARDEAU PTSUNNY   72  63  73 S24G39    30.03F
6HR MIN TEMP:  66; 6HR MAX TEMP:  73; 6HR PCP: TRACE;



...NORTHWEST ALABAMA...

CITY           SKY/WX    TMP DP  RH WIND       PRES   REMARKS
MUSCLE SHOALS  CLOUDY    75  60  59 S12       30.24F
6HR MIN TEMP:  59; 6HR MAX TEMP:  75;



...MIDDLE TENNESSEE...

CITY           SKY/WX    TMP DP  RH WIND       PRES   REMARKS
NASHVILLE      CLOUDY    75  58  55 SW18G32   30.22F
6HR MIN TEMP:  63; 6HR MAX TEMP:  76;

CLARKSVILLE    FAIR      76  52  43 S29G43    30.16F
6HR MIN TEMP:  66; 6HR MAX TEMP:  77;



...WESTERN KENTUCKY...

CITY           SKY/WX    TMP DP  RH WIND       PRES   REMARKS
PADUCAH        FAIR      76  57  51 SW16G28   30.07F
6HR MIN TEMP:  67; 6HR MAX TEMP:  76;

FORT CAMPBELL  FAIR      78  51  38 S16G33    30.14F
6HR MIN TEMP:  67; 6HR MAX TEMP:  78;



...CENTRAL ARKANSAS...

CITY           SKY/WX    TMP DP  RH WIND       PRES   REMARKS
LITTLE ROCK    CLOUDY    75  64  68 S20G28    30.05F
6HR MIN TEMP:  66; 6HR MAX TEMP:  75;



SKY/WX REPORTED AS FAIR MEANS FEW OR NO CLOUDS BELOW
12 THOUSAND FEET.





USA.gov is the U.S. government's official web portal to all federal, state and local government web resources and services.